STARLETTE

Last updated on Wed Jun 24 2026 00:03:44 GMT+0000 (Coordinated Universal Time)

1 07646U 75010A 26173.80263466 -.00000145 00000+0 28171-6 0 9995 2 07646 49.8238 82.4288 0205602 81.6082 280.8061 13.82350462595313
UTC large
Height (km)
Speed (km/s)
/
Latitude / Longitude
Inclination (degrees)
Orbital Period (minutes)
Azimuth
Elevation
Range (km)
Doppler Factor

Next 0 passes for location: London (51.5072 / 0.1276)

No passes found over London.
STARLETTE